contact:dominique.lefevre@mio.osupytheas.fr, maurice.libes@osupytheas.fr, didier.mallarino@osupytheas.fr
Project:EMSO http://www.emso-fr.org/EMSO-France
Depth: 2436.0 m
Title:EMSO Ligure Ouest : Data MII capteur CSTAR
DateTime,Latitude,Longitude,Instrument_Serial,Reference_Counts,Signal_Counts,Corrected_Signal_raw_counts,Calculated_Beam_c_inverse_meters,Internal_thermistor_counts
DateTime,Latitude,Longitude,Instrument_Serial,Reference_Counts,Signal_Counts,Corrected_Signal_raw_counts,Calculated_Beam_c_inverse_meters,Internal_thermistor_counts
2019-06-23T00:02:10,42.805,6.029,CST-1368DR,8940,12509,15514,0.026,551
2019-06-23T00:05:12,42.805,6.029,CST-1368DR,8940,12510,15516,0.026,551
2019-06-23T00:08:13,42.805,6.029,CST-1368DR,8940,12508,15513,0.026,551
2019-06-23T00:11:15,42.805,6.029,CST-1368DR,8940,12509,15514,0.026,551
2019-06-23T00:14:16,42.805,6.029,CST-1368DR,8940,12508,15514,0.026,551
2019-06-23T00:17:17,42.805,6.029,CST-1368DR,8940,12509,15515,0.026,551
2019-06-23T00:20:19,42.805,6.029,CST-1368DR,8940,12510,15515,0.026,551
2019-06-23T00:23:20,42.805,6.029,CST-1368DR,8940,12501,15504,0.029,551
2019-06-23T00:26:22,42.805,6.029,CST-1368DR,8940,12509,15515,0.026,551
2019-06-23T00:29:23,42.805,6.029,CST-1368DR,8940,12510,15516,0.026,551
2019-06-23T00:32:25,42.805,6.029,CST-1368DR,8940,12501,15504,0.029,551
2019-06-23T00:35:26,42.805,6.029,CST-1368DR,8940,12509,15514,0.026,551
2019-06-23T00:38:27,42.805,6.029,CST-1368DR,8940,12505,15510,0.027,551
2019-06-23T00:41:29,42.805,6.029,CST-1368DR,8940,12509,15514,0.026,551
2019-06-23T00:44:30,42.805,6.029,CST-1368DR,8940,12509,15514,0.026,550
2019-06-23T00:47:32,42.805,6.029,CST-1368DR,8940,12508,15513,0.026,551
2019-06-23T00:50:33,42.805,6.029,CST-1368DR,8940,12510,15516,0.026,550
2019-06-23T00:53:34,42.805,6.029,CST-1368DR,8940,12508,15513,0.026,551
2019-06-23T00:56:36,42.805,6.029,CST-1368DR,8939,12508,15514,0.026,551
2019-06-23T00:59:37,42.805,6.029,CST-1368DR,8939,12505,15511,0.027,551
2019-06-23T01:02:39,42.805,6.029,CST-1368DR,8939,12509,15516,0.026,551
2019-06-23T01:05:40,42.805,6.029,CST-1368DR,8939,12510,15517,0.025,551
2019-06-23T01:08:41,42.805,6.029,CST-1368DR,8939,12505,15511,0.027,551
2019-06-23T01:11:43,42.805,6.029,CST-1368DR,8939,12499,15503,0.029,551
2019-06-23T01:14:44,42.805,6.029,CST-1368DR,8939,12506,15512,0.027,551
2019-06-23T01:17:46,42.805,6.029,CST-1368DR,8939,12506,15512,0.027,551
2019-06-23T01:20:47,42.805,6.029,CST-1368DR,8939,12503,15509,0.028,550
2019-06-23T01:23:48,42.805,6.029,CST-1368DR,8939,12505,15512,0.027,551
2019-06-23T01:26:50,42.805,6.029,CST-1368DR,8939,12500,15505,0.029,551
2019-06-23T01:29:51,42.805,6.029,CST-1368DR,8939,12509,15516,0.026,551
2019-06-23T01:32:53,42.805,6.029,CST-1368DR,8939,12508,15515,0.026,551
2019-06-23T01:35:54,42.805,6.029,CST-1368DR,8939,12503,15509,0.028,550
2019-06-23T01:38:56,42.805,6.029,CST-1368DR,8939,12508,15514,0.026,551
2019-06-23T01:41:57,42.805,6.029,CST-1368DR,8939,12509,15516,0.026,550
2019-06-23T01:44:58,42.805,6.029,CST-1368DR,8939,12508,15515,0.026,551
2019-06-23T01:48:00,42.805,6.029,CST-1368DR,8939,12510,15517,0.025,551
2019-06-23T01:51:01,42.805,6.029,CST-1368DR,8939,12507,15513,0.026,550
2019-06-23T01:54:03,42.805,6.029,CST-1368DR,8939,12505,15512,0.027,551
2019-06-23T01:57:04,42.805,6.029,CST-1368DR,8939,12505,15512,0.027,551
2019-06-23T02:00:05,42.805,6.029,CST-1368DR,8939,12506,15512,0.027,551
2019-06-23T02:03:07,42.805,6.029,CST-1368DR,8938,12505,15513,0.026,551
2019-06-23T02:06:08,42.805,6.029,CST-1368DR,8938,12505,15512,0.027,551
2019-06-23T02:09:10,42.805,6.029,CST-1368DR,8938,12507,15515,0.026,550
2019-06-23T02:12:11,42.805,6.029,CST-1368DR,8938,12505,15513,0.026,551
2019-06-23T02:15:12,42.805,6.029,CST-1368DR,8938,12507,15516,0.026,551
2019-06-23T02:18:14,42.805,6.029,CST-1368DR,8938,12506,15514,0.026,551
2019-06-23T02:21:15,42.805,6.029,CST-1368DR,8938,12503,15510,0.027,551
2019-06-23T02:24:17,42.805,6.029,CST-1368DR,8938,12506,15513,0.026,550
2019-06-23T02:27:18,42.805,6.029,CST-1368DR,8938,12508,15517,0.025,550
2019-06-23T02:30:19,42.805,6.029,CST-1368DR,8938,12508,15517,0.025,551
2019-06-23T02:33:21,42.805,6.029,CST-1368DR,8938,12508,15516,0.026,550
2019-06-23T02:36:22,42.805,6.029,CST-1368DR,8938,12504,15512,0.027,551
2019-06-23T02:39:24,42.805,6.029,CST-1368DR,8938,12505,15513,0.026,551
2019-06-23T02:42:25,42.805,6.029,CST-1368DR,8938,12507,15516,0.026,551
2019-06-23T02:45:27,42.805,6.029,CST-1368DR,8938,12505,15512,0.027,551
2019-06-23T02:48:28,42.805,6.029,CST-1368DR,8938,12503,15510,0.027,551
2019-06-23T02:51:29,42.805,6.029,CST-1368DR,8938,12506,15514,0.026,551
2019-06-23T02:54:31,42.805,6.029,CST-1368DR,8938,12501,15508,0.028,550
2019-06-23T02:57:32,42.805,6.029,CST-1368DR,8938,12494,15499,0.030,551
2019-06-23T03:00:34,42.805,6.029,CST-1368DR,8938,12502,15509,0.028,550
2019-06-23T03:03:35,42.805,6.029,CST-1368DR,8938,12501,15508,0.028,551
2019-06-23T03:06:36,42.805,6.029,CST-1368DR,8938,12506,15514,0.026,551
2019-06-23T03:09:38,42.805,6.029,CST-1368DR,8937,12501,15509,0.028,551
2019-06-23T03:12:39,42.805,6.029,CST-1368DR,8938,12503,15510,0.027,551
2019-06-23T03:15:41,42.805,6.029,CST-1368DR,8938,12503,15510,0.027,551
2019-06-23T03:18:42,42.805,6.029,CST-1368DR,8938,12500,15506,0.028,551
2019-06-23T03:21:43,42.805,6.029,CST-1368DR,8938,12506,15513,0.026,551
2019-06-23T03:24:45,42.805,6.029,CST-1368DR,8938,12502,15508,0.028,551
2019-06-23T03:27:46,42.805,6.029,CST-1368DR,8938,12502,15509,0.028,551
2019-06-23T03:30:48,42.805,6.029,CST-1368DR,8938,12499,15505,0.029,550
2019-06-23T03:33:49,42.805,6.029,CST-1368DR,8938,12498,15504,0.029,550
2019-06-23T03:36:50,42.805,6.029,CST-1368DR,8937,12495,15502,0.029,550
2019-06-23T03:39:52,42.805,6.029,CST-1368DR,8937,12502,15511,0.027,551
2019-06-23T03:42:53,42.805,6.029,CST-1368DR,8937,12504,15513,0.026,551
2019-06-23T03:45:55,42.805,6.029,CST-1368DR,8937,12483,15487,0.033,551
2019-06-23T03:48:56,42.805,6.029,CST-1368DR,8937,12501,15509,0.028,550
2019-06-23T03:51:58,42.805,6.029,CST-1368DR,8937,12503,15512,0.027,551
2019-06-23T03:54:59,42.805,6.029,CST-1368DR,8937,12503,15512,0.027,551
2019-06-23T03:58:00,42.805,6.029,CST-1368DR,8937,12503,15512,0.027,550
2019-06-23T04:01:02,42.805,6.029,CST-1368DR,8937,12499,15506,0.028,551
2019-06-23T04:04:03,42.805,6.029,CST-1368DR,8937,12496,15503,0.029,550
2019-06-23T04:07:05,42.805,6.029,CST-1368DR,8937,12495,15502,0.029,551
2019-06-23T04:10:06,42.805,6.029,CST-1368DR,8937,12501,15509,0.028,550
2019-06-23T04:13:07,42.805,6.029,CST-1368DR,8937,12499,15506,0.028,551
2019-06-23T04:16:09,42.805,6.029,CST-1368DR,8936,12498,15507,0.028,550
2019-06-23T04:19:10,42.805,6.029,CST-1368DR,8936,12493,15501,0.030,550
2019-06-23T04:22:12,42.805,6.029,CST-1368DR,8936,12501,15511,0.027,551
2019-06-23T04:25:13,42.805,6.029,CST-1368DR,8936,12497,15506,0.028,551
2019-06-23T04:28:14,42.805,6.029,CST-1368DR,8936,12493,15501,0.030,551
2019-06-23T04:31:16,42.805,6.029,CST-1368DR,8936,12499,15508,0.028,551
2019-06-23T04:34:17,42.805,6.029,CST-1368DR,8936,12482,15487,0.033,550
2019-06-23T04:37:19,42.805,6.029,CST-1368DR,8936,12488,15495,0.031,551
2019-06-23T04:40:20,42.805,6.029,CST-1368DR,8936,12501,15511,0.027,551
2019-06-23T04:43:21,42.805,6.029,CST-1368DR,8936,12505,15515,0.026,550
2019-06-23T04:46:23,42.805,6.029,CST-1368DR,8936,12493,15501,0.030,551
2019-06-23T04:49:24,42.805,6.029,CST-1368DR,8936,12489,15496,0.031,550
2019-06-23T04:52:26,42.805,6.029,CST-1368DR,8936,12496,15504,0.029,551
2019-06-23T04:55:27,42.805,6.029,CST-1368DR,8936,12494,15503,0.029,551
2019-06-23T04:58:29,42.805,6.029,CST-1368DR,8936,12496,15505,0.029,551
2019-06-23T05:01:30,42.805,6.029,CST-1368DR,8936,12501,15511,0.027,551
2019-06-23T05:04:31,42.805,6.029,CST-1368DR,8936,12498,15507,0.028,551
2019-06-23T05:07:33,42.805,6.029,CST-1368DR,8936,12501,15511,0.027,550
2019-06-23T05:10:34,42.805,6.029,CST-1368DR,8936,12489,15496,0.031,550
2019-06-23T05:13:36,42.805,6.029,CST-1368DR,8936,12498,15507,0.028,551
2019-06-23T05:16:37,42.805,6.029,CST-1368DR,8936,12503,15513,0.026,551
2019-06-23T05:19:38,42.805,6.029,CST-1368DR,8936,12495,15504,0.029,551
2019-06-23T05:22:40,42.805,6.029,CST-1368DR,8936,12497,15506,0.028,551
2019-06-23T05:25:41,42.805,6.029,CST-1368DR,8936,12505,15516,0.026,551
2019-06-23T05:28:43,42.805,6.029,CST-1368DR,8936,12506,15517,0.025,550
2019-06-23T05:31:44,42.805,6.029,CST-1368DR,8936,12502,15513,0.026,551
2019-06-23T05:34:45,42.805,6.029,CST-1368DR,8936,12504,15515,0.026,550
2019-06-23T05:37:47,42.805,6.029,CST-1368DR,8936,12505,15516,0.026,550
2019-06-23T05:40:48,42.805,6.029,CST-1368DR,8936,12502,15512,0.027,551
2019-06-23T05:43:50,42.805,6.029,CST-1368DR,8936,12496,15505,0.029,551
2019-06-23T05:46:51,42.805,6.029,CST-1368DR,8936,12500,15509,0.028,550
2019-06-23T05:49:53,42.805,6.029,CST-1368DR,8936,12502,15512,0.027,550
2019-06-23T05:52:54,42.805,6.029,CST-1368DR,8936,12502,15512,0.027,551
2019-06-23T05:55:55,42.805,6.029,CST-1368DR,8936,12501,15511,0.027,551
2019-06-23T05:58:57,42.805,6.029,CST-1368DR,8936,12502,15512,0.027,551
2019-06-23T06:01:58,42.805,6.029,CST-1368DR,8936,12499,15508,0.028,550
2019-06-23T06:05:00,42.805,6.029,CST-1368DR,8936,12500,15510,0.027,551
2019-06-23T06:08:01,42.805,6.029,CST-1368DR,8936,12502,15513,0.026,551
2019-06-23T06:11:02,42.805,6.029,CST-1368DR,8936,12496,15505,0.029,551
2019-06-23T06:14:04,42.805,6.029,CST-1368DR,8936,12502,15512,0.027,550
2019-06-23T06:17:05,42.805,6.029,CST-1368DR,8936,12503,15514,0.026,551
2019-06-23T06:20:07,42.805,6.029,CST-1368DR,8935,12503,15515,0.026,551
2019-06-23T06:23:08,42.805,6.029,CST-1368DR,8936,12502,15513,0.026,550
2019-06-23T06:26:09,42.805,6.029,CST-1368DR,8935,12497,15508,0.028,551
2019-06-23T06:29:11,42.805,6.029,CST-1368DR,8935,12499,15510,0.027,551
2019-06-23T06:32:12,42.805,6.029,CST-1368DR,8935,12500,15511,0.027,551
2019-06-23T06:35:14,42.805,6.029,CST-1368DR,8935,12502,15514,0.026,551
2019-06-23T06:38:15,42.805,6.029,CST-1368DR,8936,12499,15509,0.028,551
2019-06-23T06:41:16,42.805,6.029,CST-1368DR,8936,12503,15514,0.026,551
2019-06-23T06:44:18,42.805,6.029,CST-1368DR,8936,12503,15513,0.026,551
2019-06-23T06:47:19,42.805,6.029,CST-1368DR,8936,12503,15513,0.026,551
2019-06-23T06:50:21,42.805,6.029,CST-1368DR,8936,12498,15508,0.028,550
2019-06-23T06:53:22,42.805,6.029,CST-1368DR,8936,12504,15514,0.026,551
2019-06-23T06:56:24,42.805,6.029,CST-1368DR,8936,12505,15516,0.026,550
2019-06-23T06:59:25,42.805,6.029,CST-1368DR,8936,12499,15508,0.028,551
2019-06-23T07:02:26,42.805,6.029,CST-1368DR,8935,12503,15515,0.026,551
2019-06-23T07:05:28,42.805,6.029,CST-1368DR,8935,12503,15515,0.026,551
2019-06-23T07:08:29,42.805,6.029,CST-1368DR,8935,12503,15515,0.026,551
2019-06-23T07:11:31,42.805,6.029,CST-1368DR,8935,12503,15515,0.026,551
2019-06-23T07:14:32,42.805,6.029,CST-1368DR,8935,12502,15514,0.026,551
2019-06-23T07:17:33,42.805,6.029,CST-1368DR,8935,12501,15513,0.026,551
2019-06-23T07:20:35,42.805,6.029,CST-1368DR,8935,12502,15514,0.026,551
2019-06-23T07:23:36,42.805,6.029,CST-1368DR,8935,12499,15510,0.027,551
2019-06-23T07:26:38,42.805,6.029,CST-1368DR,8935,12502,15514,0.026,551
2019-06-23T07:29:39,42.805,6.029,CST-1368DR,8935,12502,15513,0.026,551
2019-06-23T07:32:40,42.805,6.029,CST-1368DR,8935,12501,15512,0.027,550
2019-06-23T07:35:42,42.805,6.029,CST-1368DR,8935,12498,15508,0.028,551
2019-06-23T07:38:43,42.805,6.029,CST-1368DR,8935,12501,15513,0.026,551
2019-06-23T07:41:45,42.805,6.029,CST-1368DR,8935,12492,15501,0.030,551
2019-06-23T07:44:46,42.805,6.029,CST-1368DR,8935,12501,15513,0.026,550
2019-06-23T07:47:47,42.805,6.029,CST-1368DR,8935,12502,15514,0.026,551
2019-06-23T07:50:49,42.805,6.029,CST-1368DR,8935,12502,15513,0.026,551
2019-06-23T07:53:50,42.805,6.029,CST-1368DR,8935,12500,15511,0.027,550
2019-06-23T07:56:52,42.805,6.029,CST-1368DR,8935,12500,15511,0.027,551
2019-06-23T07:59:53,42.805,6.029,CST-1368DR,8935,12502,15514,0.026,551
2019-06-23T08:02:55,42.805,6.029,CST-1368DR,8935,12505,15517,0.025,551
2019-06-23T08:05:56,42.805,6.029,CST-1368DR,8935,12500,15511,0.027,551
2019-06-23T08:08:57,42.805,6.029,CST-1368DR,8935,12503,15515,0.026,551
2019-06-23T08:11:59,42.805,6.029,CST-1368DR,8935,12500,15511,0.027,551
2019-06-23T08:15:00,42.805,6.029,CST-1368DR,8935,12498,15509,0.028,550
2019-06-23T08:18:02,42.805,6.029,CST-1368DR,8935,12502,15513,0.026,551
2019-06-23T08:21:03,42.805,6.029,CST-1368DR,8935,12501,15513,0.026,551
2019-06-23T08:24:04,42.805,6.029,CST-1368DR,8935,12496,15506,0.028,551
2019-06-23T08:27:06,42.805,6.029,CST-1368DR,8934,12499,15511,0.027,551
2019-06-23T08:30:07,42.805,6.029,CST-1368DR,8934,12498,15510,0.027,551
2019-06-23T08:33:09,42.805,6.029,CST-1368DR,8934,12499,15511,0.027,551
2019-06-23T08:36:10,42.805,6.029,CST-1368DR,8934,12498,15511,0.027,551
2019-06-23T08:39:11,42.805,6.029,CST-1368DR,8934,12497,15509,0.028,551
2019-06-23T08:42:13,42.805,6.029,CST-1368DR,8934,12498,15510,0.027,551
2019-06-23T08:45:14,42.805,6.029,CST-1368DR,8934,12491,15502,0.029,551
2019-06-23T08:48:16,42.805,6.029,CST-1368DR,8934,12498,15511,0.027,551
2019-06-23T08:51:17,42.805,6.029,CST-1368DR,8934,12493,15504,0.029,551
2019-06-23T08:54:18,42.805,6.029,CST-1368DR,8934,12493,15505,0.029,551
2019-06-23T08:57:20,42.805,6.029,CST-1368DR,8934,12497,15509,0.028,551
2019-06-23T09:00:21,42.805,6.029,CST-1368DR,8934,12499,15511,0.027,551
2019-06-23T09:03:23,42.805,6.029,CST-1368DR,8934,12500,15513,0.026,551
2019-06-23T09:06:24,42.805,6.029,CST-1368DR,8934,12496,15507,0.028,551
2019-06-23T09:09:26,42.805,6.029,CST-1368DR,8934,12491,15502,0.029,550
2019-06-23T09:12:27,42.805,6.029,CST-1368DR,8934,12494,15506,0.028,551
2019-06-23T09:15:28,42.805,6.029,CST-1368DR,8934,12493,15504,0.029,550
2019-06-23T09:18:30,42.805,6.029,CST-1368DR,8934,12498,15511,0.027,551
2019-06-23T09:21:31,42.805,6.029,CST-1368DR,8934,12498,15511,0.027,551
2019-06-23T09:24:33,42.805,6.029,CST-1368DR,8934,12495,15507,0.028,551
2019-06-23T09:27:34,42.805,6.029,CST-1368DR,8934,12496,15507,0.028,551
2019-06-23T09:30:35,42.805,6.029,CST-1368DR,8934,12493,15504,0.029,551
2019-06-23T09:33:37,42.805,6.029,CST-1368DR,8934,12498,15510,0.027,550
2019-06-23T09:36:38,42.805,6.029,CST-1368DR,8934,12496,15508,0.028,551
2019-06-23T09:39:40,42.805,6.029,CST-1368DR,8934,12495,15507,0.028,551
2019-06-23T09:42:41,42.805,6.029,CST-1368DR,8934,12493,15504,0.029,551
2019-06-23T09:45:42,42.805,6.029,CST-1368DR,8934,12498,15511,0.027,551
2019-06-23T09:48:44,42.805,6.029,CST-1368DR,8934,12498,15511,0.027,550
2019-06-23T09:51:45,42.805,6.029,CST-1368DR,8934,12491,15502,0.029,551
2019-06-23T09:54:47,42.805,6.029,CST-1368DR,8934,12496,15508,0.028,550
2019-06-23T09:57:48,42.805,6.029,CST-1368DR,8934,12501,15514,0.026,551
2019-06-23T10:00:50,42.805,6.029,CST-1368DR,8934,12498,15511,0.027,551
2019-06-23T10:03:51,42.805,6.029,CST-1368DR,8933,12497,15510,0.027,551
2019-06-23T10:06:52,42.805,6.029,CST-1368DR,8933,12498,15512,0.027,551
2019-06-23T10:09:54,42.805,6.029,CST-1368DR,8934,12501,15514,0.026,550
2019-06-23T10:12:55,42.805,6.029,CST-1368DR,8933,12502,15516,0.026,550
2019-06-23T10:15:57,42.805,6.029,CST-1368DR,8934,12498,15511,0.027,551
2019-06-23T10:18:58,42.805,6.029,CST-1368DR,8933,12495,15508,0.028,551
2019-06-23T10:21:59,42.805,6.029,CST-1368DR,8933,12499,15513,0.026,550
2019-06-23T10:25:01,42.805,6.029,CST-1368DR,8933,12499,15514,0.026,551
2019-06-23T10:28:02,42.805,6.029,CST-1368DR,8934,12502,15515,0.026,551
2019-06-23T10:31:04,42.805,6.029,CST-1368DR,8933,12500,15514,0.026,550
2019-06-23T10:34:05,42.805,6.029,CST-1368DR,8934,12502,15515,0.026,551
2019-06-23T10:37:06,42.805,6.029,CST-1368DR,8934,12501,15514,0.026,551
2019-06-23T10:40:08,42.805,6.029,CST-1368DR,8934,12499,15512,0.027,551
2019-06-23T10:43:09,42.805,6.029,CST-1368DR,8934,12497,15510,0.027,551
2019-06-23T10:46:11,42.805,6.029,CST-1368DR,8934,12502,15515,0.026,550
2019-06-23T10:49:12,42.805,6.029,CST-1368DR,8934,12499,15512,0.027,550
2019-06-23T10:52:13,42.805,6.029,CST-1368DR,8934,12498,15510,0.027,551
2019-06-23T10:55:15,42.805,6.029,CST-1368DR,8934,12501,15514,0.026,551
2019-06-23T10:58:16,42.805,6.029,CST-1368DR,8933,12500,15514,0.026,551
2019-06-23T11:01:18,42.805,6.029,CST-1368DR,8933,12498,15512,0.027,551
2019-06-23T11:04:19,42.805,6.029,CST-1368DR,8933,12499,15514,0.026,551
2019-06-23T11:07:21,42.805,6.029,CST-1368DR,8933,12491,15503,0.029,551
2019-06-23T11:10:22,42.805,6.029,CST-1368DR,8933,12501,15515,0.026,551
2019-06-23T11:13:23,42.805,6.029,CST-1368DR,8933,12502,15517,0.025,551
2019-06-23T11:16:25,42.805,6.029,CST-1368DR,8933,12501,15516,0.026,551
2019-06-23T11:19:26,42.805,6.029,CST-1368DR,8933,12502,15517,0.025,551
2019-06-23T11:22:28,42.805,6.029,CST-1368DR,8933,12500,15514,0.026,551
2019-06-23T11:25:29,42.805,6.029,CST-1368DR,8933,12499,15513,0.026,551
2019-06-23T11:28:30,42.805,6.029,CST-1368DR,8933,12498,15512,0.027,551
2019-06-23T11:31:32,42.805,6.029,CST-1368DR,8933,12496,15509,0.028,551
2019-06-23T11:34:33,42.805,6.029,CST-1368DR,8933,12499,15513,0.026,550
2019-06-23T11:37:35,42.805,6.029,CST-1368DR,8933,12499,15513,0.026,551
2019-06-23T11:40:36,42.805,6.029,CST-1368DR,8933,12493,15506,0.028,551
2019-06-23T11:43:37,42.805,6.029,CST-1368DR,8933,12489,15501,0.030,551
2019-06-23T11:46:39,42.805,6.029,CST-1368DR,8933,12495,15509,0.028,550
2019-06-23T11:49:40,42.805,6.029,CST-1368DR,8933,12492,15504,0.029,551
2019-06-23T11:52:42,42.805,6.029,CST-1368DR,8933,12495,15508,0.028,551
2019-06-23T11:55:43,42.805,6.029,CST-1368DR,8933,12493,15506,0.028,551
2019-06-23T11:58:44,42.805,6.029,CST-1368DR,8933,12495,15508,0.028,551
2019-06-23T12:01:46,42.805,6.029,CST-1368DR,8932,12495,15510,0.027,551
2019-06-23T12:04:47,42.805,6.029,CST-1368DR,8933,12496,15510,0.027,551
2019-06-23T12:07:49,42.805,6.029,CST-1368DR,8932,12497,15512,0.027,551
2019-06-23T12:10:50,42.805,6.029,CST-1368DR,8933,12498,15512,0.027,551
2019-06-23T12:13:52,42.805,6.029,CST-1368DR,8933,12499,15513,0.026,551
2019-06-23T12:16:53,42.805,6.029,CST-1368DR,8933,12499,15513,0.026,551
2019-06-23T12:19:54,42.805,6.029,CST-1368DR,8933,12497,15510,0.027,551
2019-06-23T12:22:56,42.805,6.029,CST-1368DR,8933,12498,15512,0.027,551
2019-06-23T12:25:57,42.805,6.029,CST-1368DR,8933,12496,15510,0.027,551
2019-06-23T12:28:59,42.805,6.029,CST-1368DR,8933,12499,15513,0.026,551
2019-06-23T12:32:00,42.805,6.029,CST-1368DR,8933,12499,15514,0.026,551
2019-06-23T12:35:01,42.805,6.029,CST-1368DR,8933,12499,15514,0.026,551
2019-06-23T12:38:03,42.805,6.029,CST-1368DR,8933,12500,15515,0.026,551
2019-06-23T12:41:04,42.805,6.029,CST-1368DR,8933,12499,15513,0.026,550
2019-06-23T12:44:06,42.805,6.029,CST-1368DR,8933,12499,15514,0.026,551
2019-06-23T12:47:07,42.805,6.029,CST-1368DR,8933,12495,15508,0.028,551
2019-06-23T12:50:08,42.805,6.029,CST-1368DR,8933,12498,15512,0.027,551
2019-06-23T12:53:10,42.805,6.029,CST-1368DR,8933,12493,15506,0.028,551
2019-06-23T12:56:11,42.805,6.029,CST-1368DR,8933,12492,15504,0.029,550
2019-06-23T12:59:13,42.805,6.029,CST-1368DR,8933,12499,15514,0.026,551
2019-06-23T13:02:14,42.805,6.029,CST-1368DR,8933,12500,15515,0.026,551
2019-06-23T13:05:16,42.805,6.029,CST-1368DR,8932,12501,15517,0.025,550
2019-06-23T13:08:17,42.805,6.029,CST-1368DR,8932,12498,15514,0.026,551
2019-06-23T13:11:18,42.805,6.029,CST-1368DR,8933,12499,15513,0.026,551
2019-06-23T13:14:20,42.805,6.029,CST-1368DR,8932,12498,15513,0.026,551
2019-06-23T13:17:21,42.805,6.029,CST-1368DR,8932,12499,15514,0.026,551
2019-06-23T13:20:23,42.805,6.029,CST-1368DR,8932,12500,15516,0.026,551
2019-06-23T13:23:24,42.805,6.029,CST-1368DR,8932,12496,15511,0.027,551
2019-06-23T13:26:25,42.805,6.029,CST-1368DR,8932,12493,15507,0.028,551
2019-06-23T13:29:27,42.805,6.029,CST-1368DR,8932,12500,15516,0.026,551
2019-06-23T13:32:28,42.805,6.029,CST-1368DR,8932,12499,15514,0.026,550
2019-06-23T13:35:30,42.805,6.029,CST-1368DR,8932,12501,15517,0.025,551
2019-06-23T13:38:31,42.805,6.029,CST-1368DR,8932,12500,15516,0.026,551
2019-06-23T13:41:32,42.805,6.029,CST-1368DR,8932,12500,15516,0.026,551
2019-06-23T13:44:34,42.805,6.029,CST-1368DR,8932,12498,15513,0.026,551
2019-06-23T13:47:35,42.805,6.029,CST-1368DR,8932,12492,15506,0.028,551
2019-06-23T13:50:37,42.805,6.029,CST-1368DR,8932,12499,15515,0.026,551
2019-06-23T13:53:38,42.805,6.029,CST-1368DR,8932,12499,15515,0.026,551
2019-06-23T13:56:39,42.805,6.029,CST-1368DR,8932,12499,15515,0.026,551
2019-06-23T13:59:41,42.805,6.029,CST-1368DR,8932,12498,15513,0.026,551
2019-06-23T14:02:42,42.805,6.029,CST-1368DR,8932,12495,15510,0.027,551
2019-06-23T14:05:44,42.805,6.029,CST-1368DR,8932,12478,15489,0.033,550
2019-06-23T14:08:45,42.805,6.029,CST-1368DR,8932,12495,15510,0.027,551
2019-06-23T14:11:47,42.805,6.029,CST-1368DR,8932,12498,15514,0.026,551
2019-06-23T14:14:48,42.805,6.029,CST-1368DR,8932,12496,15511,0.027,550
2019-06-23T14:17:49,42.805,6.029,CST-1368DR,8931,12489,15504,0.029,550
2019-06-23T14:20:51,42.805,6.029,CST-1368DR,8932,12496,15511,0.027,551
2019-06-23T14:23:52,42.805,6.029,CST-1368DR,8932,12492,15507,0.028,551
2019-06-23T14:26:54,42.805,6.029,CST-1368DR,8931,12498,15515,0.026,551
2019-06-23T14:29:55,42.805,6.029,CST-1368DR,8931,12497,15513,0.026,551
2019-06-23T14:32:56,42.805,6.029,CST-1368DR,8931,12496,15513,0.026,551
2019-06-23T14:35:58,42.805,6.029,CST-1368DR,8931,12496,15513,0.026,551
2019-06-23T14:38:59,42.805,6.029,CST-1368DR,8931,12496,15512,0.027,551
2019-06-23T14:42:01,42.805,6.029,CST-1368DR,8931,12493,15509,0.028,551
2019-06-23T14:45:02,42.805,6.029,CST-1368DR,8931,12498,15515,0.026,551
2019-06-23T14:48:03,42.805,6.029,CST-1368DR,8931,12497,15514,0.026,551
2019-06-23T14:51:05,42.805,6.029,CST-1368DR,8931,12496,15513,0.026,551
2019-06-23T14:54:06,42.805,6.029,CST-1368DR,8931,12496,15513,0.026,551
2019-06-23T14:57:08,42.805,6.029,CST-1368DR,8931,12495,15512,0.027,551
2019-06-23T15:00:09,42.805,6.029,CST-1368DR,8931,12496,15513,0.026,551
2019-06-23T15:03:10,42.805,6.029,CST-1368DR,8931,12495,15511,0.027,551
2019-06-23T15:06:12,42.805,6.029,CST-1368DR,8931,12495,15512,0.027,551
2019-06-23T15:09:13,42.805,6.029,CST-1368DR,8931,12497,15514,0.026,550
2019-06-23T15:12:15,42.805,6.029,CST-1368DR,8931,12488,15503,0.029,551
2019-06-23T15:15:16,42.805,6.029,CST-1368DR,8931,12497,15513,0.026,551
2019-06-23T15:18:18,42.805,6.029,CST-1368DR,8931,12495,15512,0.027,551
2019-06-23T15:21:19,42.805,6.029,CST-1368DR,8931,12497,15514,0.026,551
2019-06-23T15:24:20,42.805,6.029,CST-1368DR,8931,12495,15512,0.027,550
2019-06-23T15:27:22,42.805,6.029,CST-1368DR,8931,12491,15507,0.028,551
2019-06-23T15:30:23,42.805,6.029,CST-1368DR,8931,12491,15506,0.028,551
2019-06-23T15:33:25,42.805,6.029,CST-1368DR,8931,12492,15508,0.028,551
2019-06-23T15:36:26,42.805,6.029,CST-1368DR,8931,12493,15508,0.028,551
2019-06-23T15:39:27,42.805,6.029,CST-1368DR,8931,12491,15506,0.028,550
2019-06-23T15:42:29,42.805,6.029,CST-1368DR,8931,12489,15504,0.029,551
2019-06-23T15:45:30,42.805,6.029,CST-1368DR,8931,12495,15512,0.027,551
2019-06-23T15:48:32,42.805,6.029,CST-1368DR,8931,12492,15508,0.028,551
2019-06-23T15:51:33,42.805,6.029,CST-1368DR,8931,12495,15511,0.027,551
2019-06-23T15:54:34,42.805,6.029,CST-1368DR,8931,12496,15513,0.026,551
2019-06-23T15:57:36,42.805,6.029,CST-1368DR,8931,12491,15507,0.028,551
2019-06-23T16:00:37,42.805,6.029,CST-1368DR,8931,12494,15510,0.027,551
2019-06-23T16:03:39,42.805,6.029,CST-1368DR,8931,12494,15510,0.027,551
2019-06-23T16:06:40,42.805,6.029,CST-1368DR,8931,12495,15511,0.027,551
2019-06-23T16:09:41,42.805,6.029,CST-1368DR,8931,12496,15512,0.027,551
2019-06-23T16:12:43,42.805,6.029,CST-1368DR,8931,12497,15514,0.026,550
2019-06-23T16:15:44,42.805,6.029,CST-1368DR,8931,12494,15510,0.027,551
2019-06-23T16:18:46,42.805,6.029,CST-1368DR,8931,12495,15512,0.027,550
2019-06-23T16:21:47,42.805,6.029,CST-1368DR,8931,12489,15504,0.029,551
2019-06-23T16:24:49,42.805,6.029,CST-1368DR,8931,12494,15511,0.027,551
2019-06-23T16:27:50,42.805,6.029,CST-1368DR,8931,12492,15507,0.028,550
2019-06-23T16:30:51,42.805,6.029,CST-1368DR,8931,12495,15511,0.027,551
2019-06-23T16:33:53,42.805,6.029,CST-1368DR,8931,12496,15513,0.026,551
2019-06-23T16:36:54,42.805,6.029,CST-1368DR,8930,12494,15512,0.027,551